Location: Newark
(7.0858°N, 171.3717°E)
Time: 07:00:29
(UTC+00:00)

Courier 1B - Pass Details

Date: 26 November 2020
Orbit: 962 x 1209 km, 28.3° (Epoch: 20 January)

Event Time Altitude Azimuth Distance (km) Brightness Sun altitude
Rises 16:28:00 0° 312° (NW) 4,025 - -29.1°
Reaches altitude 10° 16:31:11 10° 323° (NW) 3,091 - -28.4°
Exits shadow 16:35:41 27° 355° (N) 2,110 9.0 -27.3°
Maximum altitude 16:37:51 31° 22° (NNE) 1,966 9.0 -26.8°
Drops below altitude 10° 16:44:36 10° 82° (E) 3,138 10.9 -25.2°
Sets 16:47:51 0° 92° (E) 4,095 11.9 -24.5°
